Вернуться в каталог

STARLINK-4567

АктивенСвязьVLEO
NORAD 53970·PAYLOAD·🇺🇸 United States

Запущен Oct 5, 2022 с Vandenberg Space Force Base

Loading…

Ближайшие Пролёты (ближайшие 24 часа)

TLE

СвежийSource: CelesTrak SupGP

Эпоха: Sep 15, 2026, 01:52 UTC

1 53970C 22125G   26258.07826389 -.00007915  00000+0 -22639-3 0  2588
2 53970  53.1582  77.5206 0001173  80.6031  51.7428 15.35412695    16

Отслеживайте STARLINK-4567 в реальном времени с AllMySat

Download on the App Store